User: anonymous   Login
Location: Newark
(46.7000°N, 60.6000°W)
Time: 14:30:23
(UTC+00:00)
Language:

Transit 2A - Orbit

View from above orbital plane
View from above orbital plane
View from above satellite
View from above satellite

Ground track
Ground track

The orbit data is extracted from the following two-line orbital elements,

1    45U 60007A   20303.59454006 -.00000005 +00000-0 +25566-4 0  9997
2    45 066.6965 027.3820 0260337 219.2478 138.9496 14.33692601085069
Epoch (UTC): 29 October 2020 14:16:08
Eccentricity: 0.0260337
inclination: 66.6965°
perigee height: 593 km
apogee height: 966 km
right ascension of ascending node: 27.3820°
argument of perigee: 219.2478°
revolutions per day: 14.33692601
mean anomaly at epoch: 138.9496°
orbit number at epoch: 8506

The dashed part of the orbit path shows where the satellite is in the earth's shadow,  

DLR